Terug naar catalogus

STARLINK-5098

ActiefCommunicatieVLEO
NORAD 54013·PAYLOAD·🇺🇸 United States

Gelanceerd Oct 5, 2022 vanaf Vandenberg Space Force Base

Loading…

Volgende Passages (komende 24 uur)

TLE

VersSource: CelesTrak SupGP

Epoch: Sep 14, 2026, 20:48 UTC

1 54013C 22125BB  26257.86715278  .00042512  00000+0  12900-2 0  2575
2 54013  53.1596  63.8667 0001274  97.9416 147.8791 15.33526363    15

Volg STARLINK-5098 in realtime met AllMySat

Download on the App Store